Home   Weather   City of Washington   Past weeks
Flag for USA

Past Weather in City of Washington, Kansas, USA — Yesterday and Last 2 Weeks

Now
40 °F

Clear.


Feels Like: 40 °F
Forecast: 71 / 40 °F
Wind: No wind

Location: Hebron Municipal Airport

Current Time: Oct 17, 2019 at 4:25:58 am

Latest Report: Oct 17, 2019 at 3:35 am


Visibility: 10 mi

Pressure: 29.95 "Hg

Humidity: 84%

Dew Point: 36 °F

Location of City of WashingtonLocation

Past Weather in City of Washington — Graph

°F

City of Washington Temperature Yesterday

Maximum temperature yesterday: 60 °F (at 4:55 pm)
Minimum temperature yesterday: 32 °F (at 7:55 am)
Average temperature yesterday: 45 °F

High & Low Weather Summary for the Past Weeks

 TemperatureHumidityPressure
High77 °F (Oct 14, 4:15 pm)97% (Oct 7, 2:55 am)30.35 "Hg (Oct 7, 2:55 am)
Low26 °F (Oct 12, 7:35 am)19% (Oct 12, 4:55 pm)29.68 "Hg (Oct 10, 2:15 am)
Average51 °F70%30.05 "Hg
* Reported Oct 2 3:35 am — Oct 17 3:15 am, City of Washington. Weather by CustomWeather, © 2019

Note: Actual official high and low records may vary slightly from our data, if they occured in-between our weather recording intervals... More about our weather records

Advertising

City of Washington Weather History for the Previous 24 Hours

Scroll right to see more
 ConditionsComfort  
Time TempWeatherWind HumidityBarometerVisibility
3:15 am
Thu, Oct 17
39 °FClear.No wind86%29.95 "Hg10 mi
2:55 am41 °FClear.No wind82%29.96 "Hg10 mi
2:35 am41 °FClear.3 mph83%29.97 "Hg10 mi
2:15 am42 °FClear.3 mph80%29.97 "Hg10 mi
1:55 am40 °FClear.3 mph84%29.98 "Hg10 mi
1:35 am39 °FClear.No wind86%29.98 "Hg10 mi
12:55 am40 °FClear.No wind84%30.00 "Hg10 mi
12:35 am41 °FClear.No wind82%30.01 "Hg10 mi
12:15 am42 °FClear.3 mph81%30.01 "Hg10 mi
11:55 pm
Wed, Oct 16
41 °FClear.No wind81%30.02 "Hg10 mi
11:35 pm43 °FClear.No wind78%30.03 "Hg10 mi
11:15 pm42 °FClear.3 mph78%30.03 "Hg10 mi
10:55 pm43 °FClear.5 mph78%30.03 "Hg10 mi
10:35 pm44 °FClear.5 mph73%30.03 "Hg10 mi
10:15 pm45 °FClear.3 mph70%30.03 "Hg10 mi
9:35 pm45 °FClear.5 mph70%30.03 "Hg10 mi
8:55 pm47 °FClear.No wind67%30.04 "Hg10 mi
8:35 pm47 °FClear.3 mph66%30.04 "Hg10 mi
8:15 pm48 °FClear.6 mph64%30.04 "Hg10 mi
7:55 pm48 °FClear.5 mph63%30.05 "Hg10 mi
7:15 pm51 °FClear.5 mph59%30.05 "Hg10 mi
6:55 pm53 °FClear.5 mph53%30.06 "Hg10 mi
6:35 pm56 °FSunny.5 mph47%30.07 "Hg10 mi
6:15 pm58 °FSunny.6 mph42%30.08 "Hg10 mi
5:55 pm59 °FSunny.8 mph39%30.07 "Hg10 mi
5:35 pm60 °FSunny.6 mph37%30.08 "Hg10 mi
5:15 pm60 °FSunny.5 mph36%30.08 "Hg10 mi
4:55 pm60 °FSunny.8 mph36%30.08 "Hg10 mi
4:35 pm60 °FSunny.6 mph37%30.08 "Hg10 mi
4:15 pm60 °FSunny.5 mph36%30.09 "Hg10 mi
3:55 pm60 °FSunny.5 mph37%30.10 "Hg10 mi
3:35 pm59 °FSunny.3 mph38%30.11 "Hg10 mi
3:15 pm58 °FSunny.3 mph41%30.12 "Hg7 mi
2:55 pm58 °FSunny.5 mph41%30.13 "Hg10 mi
2:35 pm56 °FSunny.No wind45%30.14 "Hg10 mi
2:15 pm55 °FSunny.No wind45%30.15 "Hg10 mi
1:55 pm54 °FSunny.No wind48%30.16 "Hg10 mi
1:35 pm54 °FSunny.No wind50%30.18 "Hg10 mi
12:55 pm52 °FSunny.No wind54%30.21 "Hg10 mi
12:35 pm50 °FSunny.No wind57%30.22 "Hg10 mi
12:15 pm49 °FSunny.No wind59%30.23 "Hg10 mi
11:55 am49 °FSunny.No wind60%30.24 "Hg10 mi
11:35 am48 °FSunny.3 mph63%30.24 "Hg10 mi
11:15 am47 °FSunny.3 mph64%30.25 "Hg10 mi
10:55 am46 °FSunny.6 mph67%30.25 "Hg10 mi
10:35 am45 °FSunny.5 mph71%30.25 "Hg10 mi
10:15 am43 °FSunny.3 mph76%30.25 "Hg10 mi
9:55 am41 °FSunny.3 mph80%30.25 "Hg10 mi
9:35 am39 °FSunny.5 mph83%30.25 "Hg10 mi
9:15 am37 °FSunny.6 mph87%30.26 "Hg10 mi
8:55 am34 °FSunny.5 mph92%30.25 "Hg10 mi
8:35 am33 °FSunny.5 mph93%30.25 "Hg10 mi
8:15 am32 °FSunny.No wind95%30.24 "Hg10 mi
7:55 am32 °FSunny.3 mph93%30.24 "Hg10 mi
7:35 am32 °FClear.No wind93%30.24 "Hg10 mi
7:15 am32 °FClear.3 mph93%30.24 "Hg10 mi
6:55 am32 °FClear.5 mph94%30.24 "Hg10 mi
6:35 am32 °FClear.5 mph93%30.24 "Hg10 mi
6:15 am33 °FClear.No wind93%30.24 "Hg10 mi
5:55 am33 °FClear.3 mph92%30.24 "Hg10 mi
5:35 am34 °FClear.No wind92%30.25 "Hg10 mi
5:15 am34 °FClear.3 mph91%30.25 "Hg10 mi
4:35 am35 °FClear.5 mph88%30.24 "Hg10 mi
4:15 am35 °FClear.5 mph89%30.24 "Hg10 mi
Weather by CustomWeather, © 2019

See weather overview